STARLINK-32869, 62859

Orbit data source: Space-Track

STARLINK-32869, 62859 is a payload satellite owned by SpaceX/Seattle (US) in LEO that was launched on Sat, 01 Feb 2025 UTC via an FALCON 9 launch vehicle from the Air Force Western Test Range (AFWTR). Payload-class satellites include a variety of spacecraft equipped with specific instruments for various scientific and technological missions. These include communications satellites like Starlink; space stations such as the ISS; scientific satellites like the Hubble; Earth observation satellites from companies like Planet Labs, Umbra, and HawkEye 360; GPS; miniature CubeSats for education and research; and military/defense satellites.

Loading next visibility...
Identifier
62859, 2025-022F
Orbit
LEO
Last TLE update
9 hours ago
Origin
Manufacturer
SpaceX/Seattle
Mission
Operational Commercial Communications
Bus & Motor
STARLINK V2M, Unknown motor
Mass
730 kg wet, ~700 kg dry
Launch date (UTC)
2025-02-01 (3 months ago)
Launch vehicle
FALCON 9
Launch site
Air Force Western Test Range (AFWTR)
Object type
Payload
Rocket body
Debris
Shape & HBR
Box + 2 Pan, 29 m
Radar Cross Section
33.884 m², Large (>1 m²)

Expand to show TLE details & history

TLE from 9 hours ago
0 STARLINK-32869
1 62859U 25022F   25128.96670105  .00001694  00000-0  52296-4 0  9991
2 62859  53.1603 108.7063 0000810 103.0900 257.0195 15.39624338 16119
Epoch: 2025-05-08T23:12Z
Definitive object data (Epoch: 2025-05-08T23:12:02.97Z)
Latitude
-0.00006°
Longitude
-106.33573°
Altitude
448.247 km
Speed
7.644 km/s
True Right ascension
07h 14m 49s
True Declination
0° 00' 00"
Sunlit
Object was in daylight at TLE epoch
Visualization TLE readout
Latitude
-44.90944°
Longitude
119.88926°
Altitude
462.81 km
Speed
7.635 km/s
Apparent Right ascension
01h 16m 31s
Apparent Declination
-51° 39' 27"
Sunlit
Object is in daylight
Visualization observer readout
Local Sidereal Time
16:11:13
Azimuth
126.21° SE
Elevation
-57.931°
Doppler factor
1
Orbital elements
Apogee altitude
448.03 km
Perigee altitude
446.924 km
Semi-major axis
6,825.614 km
Eccentricity
0.000081
Inclination
53.1603°
RAAN
108.7063°
Arg. of periapsis
103.09°
True anomaly
257.01046°
Mean anomaly
257.0195°
Eccentric anomaly
257.01498°
Mean motion
3.84885 °/min
BSTAR
0.000052296
Orbital period
93.53 mins
Loading maneuver chart data...
Loading SW <> Apogee altitude chart data...
Loading historical data...
Loading historical data...
Loading historical data...
Loading historical data...
Loading historical data...
Loading historical data...
Loading historical data...

STARLINK-32869 Visibility forecast

Observer location: undefined°, undefined°

Span
Click to sort rows by Start time (UTC) header in descending order
Start Az.
Max El. time (UTC)
Max El. Az.
Max El.
End time (UTC)
End Az.
5 mins2025-05-09 09:05:07.197Z283.309° WNW2025-05-09 09:07:07.197Z237.279° WSW27.113°2025-05-09 09:10:07.197Z167.002° S
4 mins2025-05-10 00:18:07.197Z162.158° S2025-05-10 00:19:07.197Z138.225° SSE20.964°2025-05-10 00:22:07.197Z77.65° E
4 mins2025-05-10 01:55:07.197Z276.388° WNW2025-05-10 01:56:07.197Z307.244° NW31.139°2025-05-10 01:59:07.197Z32.156° NE
5 mins2025-05-10 06:49:07.197Z336.535° NNW2025-05-10 06:51:07.197Z15.787° NNE21.791°2025-05-10 06:54:07.197Z81.005° E
|